FW1790 Weather Reports


Display with metric or nautical units.
time (UTC)temp
F
wind
direction
speed
MPH
gust
MPH
rain 1hr
in
rain 24hr
in
rain mn
in
humidity
%
barometer
mb
20210622040940 80 270 3.0 3.0 0.00 0.00 0.00 28 1016.2
20210622040442 80 255 3.0 3.0 0.00 0.00 0.00 27 1016.2
20210622035946 80 256 4.0 4.0 0.00 0.00 0.00 25 1016.1
20210622035446 81 252 4.0 5.0 0.00 0.00 0.00 25 1016.1
20210622035015 81 257 3.0 4.0 0.00 0.00 0.00 25 1015.9
20210622034452 81 261 5.0 5.0 0.00 0.00 0.00 25 1015.9
20210622033943 81 249 4.0 6.0 0.00 0.00 0.00 25 1015.9
20210622033437 82 238 3.0 4.0 0.00 0.00 0.00 26 1015.9
20210622032947 82 257 2.0 2.0 0.00 0.00 0.00 26 1015.9
20210622032442 83 336 0.0 2.0 0.00 0.00 0.00 25 1015.9
20210622031946 83 10 2.0 3.0 0.00 0.00 0.00 24 1015.8
20210622031540 84 11 2.0 2.0 0.00 0.00 0.00 24 1015.8
20210622030949 84 356 3.0 3.0 0.00 0.00 0.00 23 1015.8
20210622030445 84 353 3.0 4.0 0.00 0.00 0.00 22 1015.8
20210622030025 85 354 3.0 3.0 0.00 0.00 0.00 22 1015.8
20210622025446 85 349 3.0 4.0 0.00 0.00 0.00 21 1015.8
20210622024941 86 345 3.0 4.0 0.00 0.00 0.00 21 1015.8
20210622024443 86 344 4.0 5.0 0.00 0.00 0.00 20 1015.8
20210622023947 87 350 4.0 5.0 0.00 0.00 0.00 20 1015.8
20210622023447 87 355 4.0 5.0 0.00 0.00 0.00 20 1015.8
20210622022937 88 357 4.0 5.0 0.00 0.00 0.00 20 1015.8
20210622022439 88 358 5.0 8.0 0.00 0.00 0.00 20 1015.8
20210622021950 88 0 5.0 6.0 0.00 0.00 0.00 20 1015.8
20210622021441 88 6 6.0 8.0 0.00 0.00 0.00 19 1015.7
20210622020952 89 0 5.0 8.0 0.00 0.00 0.00 20 1015.7
20210622020448 89 0 4.0 6.0 0.00 0.00 0.00 20 1015.8
20210622015942 89 4 5.0 6.0 0.00 0.00 0.00 20 1015.8
20210622015444 89 5 8.0 11.0 0.00 0.00 0.00 19 1015.7
20210622014946 89 13 8.0 10.0 0.00 0.00 0.00 19 1015.7
20210622014444 90 23 7.0 9.0 0.00 0.00 0.00 19 1015.7
20210622013937 90 7 8.0 11.0 0.00 0.00 0.00 19 1015.7
20210622013443 90 9 7.0 9.0 0.00 0.00 0.00 19 1015.7
20210622012944 90 14 8.0 10.0 0.00 0.00 0.00 19 1015.7
20210622012439 90 8 8.0 12.0 0.00 0.00 0.00 18 1015.7
20210622011954 90 13 6.0 8.0 0.00 0.00 0.00 19 1015.7
20210622011440 90 5 9.0 12.0 0.00 0.00 0.00 19 1015.7
20210622010946 90 11 6.0 10.0 0.00 0.00 0.00 19 1015.7
20210622010444 90 23 7.0 9.0 0.00 0.00 0.00 19 1015.7
20210622005948 90 17 7.0 9.0 0.00 0.00 0.00 19 1015.8
20210622005449 90 19 8.0 10.0 0.00 0.00 0.00 19 1015.8
20210622005021 90 19 5.0 8.0 0.00 0.00 0.00 20 1015.8
20210622004943 90 19 5.0 8.0 0.00 0.00 0.00 20 1015.8
20210622004440 90 21 6.0 7.0 0.00 0.00 0.00 20 1015.8
20210622003946 91 15 8.0 10.0 0.00 0.00 0.00 19 1015.8
20210622003446 90 7 7.0 9.0 0.00 0.00 0.00 20 1015.9
20210622002941 90 13 8.0 10.0 0.00 0.00 0.00 19 1015.9
20210622002438 91 357 6.0 11.0 0.00 0.00 0.00 20 1015.9
20210622001947 91 21 6.0 8.0 0.00 0.00 0.00 19 1016.1
20210622001440 91 0 6.0 7.0 0.00 0.00 0.00 20 1016.1
20210622000951 91 15 7.0 9.0 0.00 0.00 0.00 19 1016.1
20210622000444 91 355 4.0 6.0 0.00 0.00 0.00 21 1016.2
20210621235940 90 5 7.0 9.0 0.00 0.00 0.00 20 1016.2
20210621235441 91 354 6.0 9.0 0.00 0.00 0.00 20 1016.2
20210621234943 91 6 6.0 9.0 0.00 0.00 0.00 19 1016.2
20210621234442 91 27 5.0 6.0 0.00 0.00 0.00 20 1016.2
20210621233947 91 12 5.0 7.0 0.00 0.00 0.00 19 1016.3
20210621233441 91 10 5.0 6.0 0.00 0.00 0.00 20 1016.3
20210621232936 90 5 7.0 10.0 0.00 0.00 0.00 19 1016.4
20210621232454 90 29 4.0 7.0 0.00 0.00 0.00 19 1016.4
20210621231943 90 22 8.0 9.0 0.00 0.00 0.00 19 1016.4
20210621231440 90 11 7.0 9.0 0.00 0.00 0.00 19 1016.5
20210621231026 90 2 8.0 10.0 0.00 0.00 0.00 20 1016.5
20210621230447 90 0 6.0 8.0 0.00 0.00 0.00 19 1016.6
20210621225939 90 22 6.0 8.0 0.00 0.00 0.00 20 1016.7
20210621225451 90 18 8.0 10.0 0.00 0.00 0.00 19 1016.7
20210621224947 90 71 2.0 3.0 0.00 0.00 0.00 19 1016.7
20210621224536 90 20 6.0 9.0 0.00 0.00 0.00 20 1016.9
20210621224143 90 4 4.0 6.0 0.00 0.00 0.00 19 1016.9
20210621223457 90 47 6.0 7.0 0.00 0.00 0.00 20 1017.0
20210621223026 90 22 7.0 10.0 0.00 0.00 0.00 20 1017.0
20210621222537 90 3 3.0 5.0 0.00 0.00 0.00 20 1017.0
20210621222101 90 348 6.0 8.0 0.00 0.00 0.00 19 1017.1
20210621221533 90 20 5.0 8.0 0.00 0.00 0.00 20 1017.1
20210621221136 91 335 5.0 7.0 0.00 0.00 0.00 20 1017.2
20210621220646 90 0 6.0 9.0 0.00 0.00 0.00 20 1017.2
20210621220151 90 0 4.0 6.0 0.00 0.00 0.00 18 1017.3
20210621215644 90 36 6.0 7.0 0.00 0.00 0.00 19 1017.3
20210621214630 89 318 3.0 5.0 0.00 0.00 0.00 18 1017.4
20210621214044 90 311 5.0 8.0 0.00 0.00 0.00 20 1017.4
20210621213557 90 321 3.0 5.0 0.00 0.00 0.00 18 1017.5
20210621213332 90 332 4.0 5.0 0.00 0.00 0.00 18 1017.7
20210621213243 90 332 4.0 5.0 0.00 0.00 0.00 18 1017.7
20210621210445 89 167 3.0 4.0 0.00 0.00 0.00 17 1017.9
20210621210018 89 317 2.0 3.0 0.00 0.00 0.00 17 1017.9
20210621205520 89 326 2.0 3.0 0.00 0.00 0.00 18 1017.9
20210621205014 89 5 2.0 3.0 0.00 0.00 0.00 19 1018.0
20210621204446 88 30 6.0 8.0 0.00 0.00 0.00 19 1018.0
20210621204018 88 263 2.0 3.0 0.00 0.00 0.00 18 1018.0
20210621203523 87 343 5.0 7.0 0.00 0.00 0.00 19 1018.1
20210621202942 87 323 3.0 3.0 0.00 0.00 0.00 20 1018.1
20210621202439 88 336 5.0 7.0 0.00 0.00 0.00 19 1018.2
20210621202019 87 19 7.0 9.0 0.00 0.00 0.00 18 1018.3
20210621201442 87 348 5.0 9.0 0.00 0.00 0.00 19 1018.3
20210621200950 87 155 2.0 7.0 0.00 0.00 0.00 17 1018.5
20210621200447 87 345 4.0 5.0 0.00 0.00 0.00 20 1018.6
20210621195952 87 21 8.0 9.0 0.00 0.00 0.00 19 1018.6
20210621195648 87 323 3.0 4.0 0.00 0.00 0.00 20 1018.6
20210621195014 87 13 5.0 8.0 0.00 0.00 0.00 20 1018.6
20210621194612 86 10 4.0 7.0 0.00 0.00 0.00 21 1018.7
20210621194028 86 329 2.0 4.0 0.00 0.00 0.00 20 1018.7
20210621193550 86 0 5.0 7.0 0.00 0.00 0.00 19 1018.8
20210621193017 85 8 5.0 6.0 0.00 0.00 0.00 19 1018.9
20210621192514 85 49 4.0 6.0 0.00 0.00 0.00 21 1018.9
20210621191950 85 60 6.0 8.0 0.00 0.00 0.00 21 1018.9
20210621191527 85 30 3.0 5.0 0.00 0.00 0.00 22 1019.0
20210621190944 86 34 4.0 7.0 0.00 0.00 0.00 22 1019.0
20210621190550 86 2 2.0 5.0 0.00 0.00 0.00 22 1019.0
20210621190111 85 213 2.0 3.0 0.00 0.00 0.00 22 1019.1
20210621185624 84 359 5.0 8.0 0.00 0.00 0.00 21 1019.1
20210621185042 84 7 5.0 7.0 0.00 0.00 0.00 23 1019.1
20210621184628 84 355 3.0 4.0 0.00 0.00 0.00 24 1019.3
20210621184117 84 14 3.0 7.0 0.00 0.00 0.00 24 1019.3
20210621183616 85 44 4.0 7.0 0.00 0.00 0.00 26 1019.3
20210621183117 85 63 3.0 5.0 0.00 0.00 0.00 25 1019.4
20210621182548 85 87 2.0 5.0 0.00 0.00 0.00 24 1019.4
20210621182146 84 41 1.0 3.0 0.00 0.00 0.00 24 1019.5
20210621181712 84 191 2.0 4.0 0.00 0.00 0.00 23 1019.5
20210621181217 83 135 3.0 5.0 0.00 0.00 0.00 23 1019.5
20210621180722 83 42 4.0 6.0 0.00 0.00 0.00 24 1019.6
20210621180217 83 70 5.0 7.0 0.00 0.00 0.00 23 1019.6
20210621175728 83 129 5.0 7.0 0.00 0.00 0.00 24 1019.6
20210621175210 82 141 6.0 8.0 0.00 0.00 0.00 24 1019.6
20210621174722 82 191 4.0 7.0 0.00 0.00 0.00 24 1019.6
20210621174224 82 70 5.0 7.0 0.00 0.00 0.00 24 1019.6
20210621173748 82 141 5.0 7.0 0.00 0.00 0.00 25 1019.6
20210621173214 82 140 6.0 9.0 0.00 0.00 0.00 24 1019.6
20210621172745 81 166 5.0 9.0 0.00 0.00 0.00 25 1019.7
20210621172347 81 147 6.0 9.0 0.00 0.00 0.00 24 1019.7
20210621171826 81 141 3.0 5.0 0.00 0.00 0.00 24 1019.7
20210621171319 81 125 5.0 8.0 0.00 0.00 0.00 24 1019.8
20210621170852 81 157 5.0 9.0 0.00 0.00 0.00 27 1019.8
20210621170411 80 104 3.0 7.0 0.00 0.00 0.00 27 1019.9
20210621165912 80 161 4.0 8.0 0.00 0.00 0.00 28 1019.8
20210621165420 80 151 4.0 7.0 0.00 0.00 0.00 27 1019.8
20210621164914 79 139 4.0 7.0 0.00 0.00 0.00 27 1019.8
20210621164420 79 92 6.0 7.0 0.00 0.00 0.00 28 1019.8
20210621163916 79 77 3.0 7.0 0.00 0.00 0.00 29 1019.8
20210621163412 79 107 3.0 7.0 0.00 0.00 0.00 29 1019.8
20210621162948 79 105 4.0 7.0 0.00 0.00 0.00 28 1019.8
20210621162418 78 152 6.0 9.0 0.00 0.00 0.00 28 1019.8
20210621162020 78 93 5.0 9.0 0.00 0.00 0.00 29 1019.8
20210621161420 78 140 6.0 9.0 0.00 0.00 0.00 29 1019.8
20210621160912 78 129 4.0 7.0 0.00 0.00 0.00 30 1019.9
20210621160428 77 153 6.0 9.0 0.00 0.00 0.00 29 1019.9
20210621155918 77 131 7.0 9.0 0.00 0.00 0.00 29 1019.8
20210621155423 77 117 3.0 7.0 0.00 0.00 0.00 32 1019.9
20210621154916 77 86 3.0 6.0 0.00 0.00 0.00 33 1019.9
20210621154413 76 102 4.0 7.0 0.00 0.00 0.00 33 1019.9
20210621153919 76 119 7.0 9.0 0.00 0.00 0.00 33 1019.9
20210621153418 76 104 3.0 5.0 0.00 0.00 0.00 34 1019.9
20210621152917 76 135 5.0 7.0 0.00 0.00 0.00 33 1019.9
20210621152415 76 109 5.0 8.0 0.00 0.00 0.00 33 1019.9
20210621151923 75 143 5.0 8.0 0.00 0.00 0.00 32 1019.9
20210621151417 75 116 3.0 6.0 0.00 0.00 0.00 32 1019.9
20210621150924 75 124 7.0 8.0 0.00 0.00 0.00 33 1019.9
20210621150424 74 133 5.0 7.0 0.00 0.00 0.00 34 1019.9
20210621145922 74 142 4.0 7.0 0.00 0.00 0.00 35 1019.9
20210621145427 74 122 5.0 8.0 0.00 0.00 0.00 34 1019.9
20210621144924 74 143 3.0 7.0 0.00 0.00 0.00 34 1019.9
20210621144421 74 125 0.0 2.0 0.00 0.00 0.00 35 1020.1
20210621143917 73 127 2.0 4.0 0.00 0.00 0.00 33 1020.1
20210621143418 73 167 0.0 1.0 0.00 0.00 0.00 32 1020.1
20210621142919 73 141 3.0 4.0 0.00 0.00 0.00 31 1020.1
20210621142422 74 52 3.0 4.0 0.00 0.00 0.00 32 1020.2
20210621141932 73 108 1.0 2.0 0.00 0.00 0.00 32 1020.2
20210621141416 73 28 1.0 2.0 0.00 0.00 0.00 31 1020.2
20210621140929 74 77 2.0 2.0 0.00 0.00 0.00 30 1020.2
20210621140426 73 65 0.0 1.0 0.00 0.00 0.00 33 1020.1
20210621135926 72 0 0.0 0.0 0.00 0.00 0.00 32 1020.1
20210621135415 71 0 0.0 0.0 0.00 0.00 0.00 33 1020.1
20210621134918 71 0 0.0 0.0 0.00 0.00 0.00 32 1020.1
20210621134433 70 0 0.0 0.0 0.00 0.00 0.00 33 1020.1
20210621133925 69 194 0.0 0.0 0.00 0.00 0.00 36 1020.1
20210621133420 68 180 2.0 3.0 0.00 0.00 0.00 35 1019.9
20210621132920 68 0 0.0 0.0 0.00 0.00 0.00 35 1019.9
20210621132418 67 0 0.0 0.0 0.00 0.00 0.00 35 1019.9
20210621131920 66 0 0.0 0.0 0.00 0.00 0.00 34 1019.9
20210621131423 65 0 0.0 0.0 0.00 0.00 0.00 34 1019.9
20210621130918 64 0 0.0 0.0 0.00 0.00 0.00 35 1019.9
20210621130416 63 219 1.0 2.0 0.00 0.00 0.00 36 1019.9
20210621125920 63 196 2.0 3.0 0.00 0.00 0.00 38 1019.9
20210621125444 62 199 2.0 2.0 0.00 0.00 0.00 37 1019.8
20210621124921 62 211 2.0 3.0 0.00 0.00 0.00 39 1019.7
20210621124548 62 297 2.0 3.0 0.00 0.00 0.00 41 1019.7
20210621123919 62 139 2.0 2.0 0.00 0.00 0.00 41 1019.6
20210621123417 63 150 3.0 4.0 0.00 0.00 0.00 37 1019.6
20210621122920 63 184 2.0 3.0 0.00 0.00 0.00 36 1019.5
20210621122410 63 289 2.0 3.0 0.00 0.00 0.00 34 1019.4
20210621121923 63 309 3.0 5.0 0.00 0.00 0.00 33 1019.3
20210621121415 63 310 4.0 6.0 0.00 0.00 0.00 35 1019.1
20210621120909 63 319 4.0 6.0 0.00 0.00 0.00 35 1019.1
20210621120410 62 324 4.0 5.0 0.00 0.00 0.00 35 1019.1
20210621115911 62 326 3.0 5.0 0.00 0.00 0.00 36 1019.1
20210621115421 63 321 2.0 3.0 0.00 0.00 0.00 38 1019.0
20210621114920 63 208 2.0 3.0 0.00 0.00 0.00 38 1018.9
20210621114409 64 202 3.0 3.0 0.00 0.00 0.00 35 1018.9
20210621113916 65 235 1.0 2.0 0.00 0.00 0.00 35 1018.9
20210621113417 66 264 2.0 3.0 0.00 0.00 0.00 32 1018.9
20210621112913 67 273 3.0 3.0 0.00 0.00 0.00 29 1018.8
20210621112418 66 270 1.0 1.0 0.00 0.00 0.00 29 1018.8
20210621111915 65 234 3.0 3.0 0.00 0.00 0.00 30 1018.8
20210621111421 65 182 1.0 2.0 0.00 0.00 0.00 32 1018.7
20210621110912 65 231 2.0 3.0 0.00 0.00 0.00 32 1018.7
20210621110420 65 264 3.0 4.0 0.00 0.00 0.00 32 1018.6
20210621105917 64 250 5.0 7.0 0.00 0.00 0.00 33 1018.6
20210621105424 64 280 5.0 7.0 0.00 0.00 0.00 37 1018.6
20210621104912 64 319 1.0 2.0 0.00 0.00 0.00 42 1018.6
20210621104417 65 326 2.0 3.0 0.00 0.00 0.00 40 1018.5
20210621103926 66 314 2.0 3.0 0.00 0.00 0.00 35 1018.5
20210621103414 66 300 1.0 3.0 0.00 0.00 0.00 35 1018.5
20210621102914 66 344 2.0 2.0 0.00 0.00 0.00 37 1018.5
20210621102421 67 293 3.0 3.0 0.00 0.00 0.00 35 1018.3
20210621101917 67 312 2.0 2.0 0.00 0.00 0.00 34 1018.3
20210621101416 68 297 3.0 3.0 0.00 0.00 0.00 34 1018.2
20210621100917 68 327 3.0 3.0 0.00 0.00 0.00 31 1018.2
20210621100421 68 308 2.0 2.0 0.00 0.00 0.00 33 1018.2
20210621095916 68 290 1.0 1.0 0.00 0.00 0.00 32 1018.2
20210621095425 68 214 1.0 2.0 0.00 0.00 0.00 32 1018.3
20210621094915 69 239 0.0 1.0 0.00 0.00 0.00 31 1018.2
20210621094417 69 275 4.0 5.0 0.00 0.00 0.00 30 1018.1
20210621093920 69 244 4.0 5.0 0.00 0.00 0.00 30 1018.1
20210621093427 68 244 5.0 6.0 0.00 0.00 0.00 31 1018.1
20210621092917 68 233 4.0 6.0 0.00 0.00 0.00 31 1018.2
20210621092420 69 218 4.0 5.0 0.00 0.00 0.00 32 1018.2
20210621091914 69 168 2.0 3.0 0.00 0.00 0.00 30 1018.2
20210621091417 69 133 0.0 2.0 0.00 0.00 0.00 29 1018.1
20210621090921 68 208 3.0 4.0 0.00 0.00 0.00 30 1018.0
20210621090417 68 200 4.0 5.0 0.00 0.00 0.00 31 1018.0
20210621085915 69 188 2.0 3.0 0.00 0.00 0.00 30 1017.9
20210621085425 69 199 2.0 3.0 0.00 0.00 0.00 31 1018.0
20210621084917 69 330 2.0 4.0 0.00 0.00 0.00 29 1017.9
20210621084415 70 24 2.0 3.0 0.00 0.00 0.00 28 1017.9
20210621083922 70 106 2.0 3.0 0.00 0.00 0.00 27 1017.8
20210621083415 69 89 2.0 3.0 0.00 0.00 0.00 26 1017.8
20210621082912 69 141 2.0 2.0 0.00 0.00 0.00 31 1017.7
20210621082428 70 215 2.0 3.0 0.00 0.00 0.00 32 1017.5
20210621081913 71 139 0.0 1.0 0.00 0.00 0.00 26 1017.5
20210621081419 70 167 2.0 2.0 0.00 0.00 0.00 27 1017.5
20210621080917 70 212 2.0 2.0 0.00 0.00 0.00 28 1017.5
20210621080426 71 305 0.0 1.0 0.00 0.00 0.00 28 1017.4
20210621075918 71 11 0.0 2.0 0.00 0.00 0.00 27 1017.4
20210621075419 71 103 1.0 2.0 0.00 0.00 0.00 29 1017.4
20210621074914 71 142 3.0 3.0 0.00 0.00 0.00 29 1017.3
20210621074420 72 163 2.0 3.0 0.00 0.00 0.00 28 1017.3
20210621073927 72 230 2.0 3.0 0.00 0.00 0.00 26 1017.3
20210621073419 73 206 3.0 3.0 0.00 0.00 0.00 26 1017.3
20210621072916 74 127 0.0 1.0 0.00 0.00 0.00 24 1017.3
20210621072425 74 48 2.0 2.0 0.00 0.00 0.00 23 1017.3
20210621071919 74 327 3.0 5.0 0.00 0.00 0.00 22 1017.2
20210621071424 75 324 3.0 4.0 0.00 0.00 0.00 23 1017.2
20210621070914 75 19 3.0 6.0 0.00 0.00 0.00 23 1017.2
20210621070409 75 10 5.0 6.0 0.00 0.00 0.00 22 1017.3
20210621065924 76 344 4.0 5.0 0.00 0.00 0.00 21 1017.2
20210621065524 76 11 4.0 7.0 0.00 0.00 0.00 21 1017.3
20210621064918 77 54 6.0 8.0 0.00 0.00 0.00 22 1017.3
20210621064415 77 350 1.0 3.0 0.00 0.00 0.00 20 1017.3
20210621063914 78 331 5.0 7.0 0.00 0.00 0.00 19 1017.2
20210621063419 78 327 3.0 5.0 0.00 0.00 0.00 19 1017.3
20210621062919 78 331 3.0 5.0 0.00 0.00 0.00 19 1017.3
20210621062421 78 321 5.0 9.0 0.00 0.00 0.00 19 1017.2
20210621061928 78 310 5.0 8.0 0.00 0.00 0.00 19 1017.3
20210621061417 78 312 6.0 9.0 0.00 0.00 0.00 19 1017.3
20210621060922 78 322 6.0 9.0 0.00 0.00 0.00 19 1017.3
20210621060423 79 319 8.0 10.0 0.00 0.00 0.00 18 1017.2
20210621055917 79 327 6.0 8.0 0.00 0.00 0.00 18 1017.3
20210621055416 79 320 6.0 8.0 0.00 0.00 0.00 18 1017.3
20210621054921 79 324 7.0 12.0 0.00 0.00 0.00 18 1017.3
20210621054412 79 307 7.0 10.0 0.00 0.00 0.00 18 1017.3
20210621053920 79 325 6.0 8.0 0.00 0.00 0.00 17 1017.3
20210621053415 79 324 5.0 9.0 0.00 0.00 0.00 17 1017.4
20210621052912 79 311 7.0 11.0 0.00 0.00 0.00 17 1017.3
20210621052416 80 309 5.0 9.0 0.00 0.00 0.00 17 1017.3
20210621051925 80 314 5.0 8.0 0.00 0.00 0.00 17 1017.3
20210621051423 80 314 6.0 11.0 0.00 0.00 0.00 17 1017.3
20210621050913 80 300 6.0 10.0 0.00 0.00 0.00 17 1017.3
20210621050415 80 308 5.0 9.0 0.00 0.00 0.00 18 1017.3
20210621045916 80 308 6.0 8.0 0.00 0.00 0.00 18 1017.2
20210621045412 80 319 5.0 9.0 0.00 0.00 0.00 19 1017.1
20210621044915 80 316 6.0 9.0 0.00 0.00 0.00 19 1017.1
20210621044416 80 324 9.0 13.0 0.00 0.00 0.00 19 1017.0
20210621043915 80 318 7.0 10.0 0.00 0.00 0.00 20 1017.0
20210621043427 80 327 7.0 11.0 0.00 0.00 0.00 21 1016.9
20210621042918 80 318 7.0 12.0 0.00 0.00 0.00 21 1016.7
20210621042422 80 301 4.0 7.0 0.00 0.00 0.00 21 1016.6
20210621041917 80 299 4.0 6.0 0.00 0.00 0.00 21 1016.6
20210621041423 80 307 4.0 7.0 0.00 0.00 0.00 21 1016.5